White Plains, CT

5:43 AM EDT on September 23, 2019 (GMT -0400)
Westchester County

Weather History for KHPN - July, 2019

Change the Weather History Date:

Wednesday, July 31, 2019

  Actual Average Record
Temperature  
Mean Temperature 78 °F -  
Max Temperature 86 °F 80 °F 93 °F (1975)
Min Temperature 68 °F 63 °F 57 °F (2001)
Cooling Degree Days 12    
Growing Degree Days 28 (Base 50)    
Moisture  
Dew Point 67 °F    
Average Humidity 77    
Maximum Humidity 94    
Minimum Humidity 55    
Precipitation  
Precipitation 0.50 in - - ()
Sea Level Pressure  
Sea Level Pressure 30.01 in    
Wind  
Wind Speed 5 mph (NW)    
Max Wind Speed 24 mph    
Max Gust Speed 45 mph    
Visibility 8 miles    
Events Rain , Thunderstorm    
Averages and records for this station are not official NWS values.
T = Trace of Precipitation, MM = Missing Value Source: NWS Daily Summary

Daily Weather History Graph

Daily Weather History Graph

Search for Another Location

Airport or City:

Astronomy

Jul. 31, 2019 Rise Set
Actual Time 5:49 AM EDT 8:12 PM EDT
Civil Twilight 5:18 AM EDT 8:43 PM EDT
Nautical Twilight 4:39 AM EDT 9:21 PM EDT
Astronomical Twilight 3:57 AM EDT 10:04 PM EDT
Moon 4:59 AM EDT (7/31) 8:09 PM EDT (7/31)
Length of Visible Light 15h 25m
Length of Day
14h 23m
Waning Crescent, 0% of the Moon is Illuminated
Jul 31
Waning Crescent
Jul 31
New
Aug 7
First Quarter
Aug 15
Full
Aug 23
Last Quarter

Hourly Weather History & Observations

Time (EDT) Temp. Heat Index Dew Point Humidity Pressure Visibility Wind Dir Wind Speed Gust Speed Precip Events Conditions
12:56 AM 79.0 °F - 66.9 °F 66% 29.99 in 10.0 mi Calm Calm - N/A   Clear
1:56 AM 77.0 °F - 66.9 °F 71% 29.99 in 10.0 mi Variable 3.5 mph - N/A   Clear
2:56 AM 77.0 °F - 66.9 °F 71% 29.98 in 10.0 mi West 3.5 mph - N/A   Clear
3:56 AM 75.9 °F - 66.9 °F 74% 29.98 in 10.0 mi Calm Calm - N/A   Partly Cloudy
4:56 AM 73.0 °F - 66.9 °F 81% 29.98 in 10.0 mi WNW 3.5 mph - N/A   Clear
5:56 AM 70.0 °F - 66.9 °F 90% 29.99 in 8.0 mi Calm Calm - N/A   Clear
6:56 AM 72.0 °F - 69.1 °F 91% 30.00 in 9.0 mi Calm Calm - N/A   Clear
7:56 AM 75.9 °F - 68.0 °F 76% 30.01 in 10.0 mi Calm Calm - N/A   Clear
8:56 AM 80.1 °F 82.3 °F 66.9 °F 64% 30.02 in 10.0 mi Calm Calm - N/A   Clear
9:56 AM 82.9 °F 85.4 °F 66.9 °F 58% 30.01 in 10.0 mi NW 4.6 mph - N/A   Clear
10:56 AM 86.0 °F 89.4 °F 68.0 °F 55% 30.02 in 10.0 mi Variable 3.5 mph - N/A   Clear
11:56 AM 84.9 °F 87.6 °F 66.9 °F 55% 30.02 in 10.0 mi WNW 6.9 mph - N/A   Partly Cloudy
12:56 PM 84.9 °F 87.6 °F 66.9 °F 55% 30.01 in 10.0 mi NW 5.8 mph - N/A   Partly Cloudy
1:56 PM 84.9 °F 88.2 °F 68.0 °F 57% 29.99 in 10.0 mi NW 10.4 mph - N/A   Partly Cloudy
2:56 PM 84.0 °F 87.0 °F 68.0 °F 58% 29.97 in 9.0 mi NNW 5.8 mph - N/A   Partly Cloudy
3:48 PM 80.1 °F 82.1 °F 66.0 °F 62% 29.99 in 10.0 mi North 17.3 mph 24.2 mph N/A Thunderstorm Mostly Cloudy
3:56 PM 80.1 °F 82.1 °F 66.0 °F 62% 29.97 in 10.0 mi NNW 15.0 mph - N/A Thunderstorm Thunderstorm
4:26 PM 70.0 °F - 66.0 °F 87% 30.03 in 1.2 mi SSE 24.2 mph - 0.17 in Rain , Thunderstorm Thunderstorms and Rain
4:30 PM 71.1 °F - 66.0 °F 84% 30.03 in 2.5 mi ESE 16.1 mph 44.9 mph 0.41 in Rain , Thunderstorm Thunderstorms and Rain
4:40 PM 70.0 °F - 66.9 °F 90% 30.03 in 2.5 mi South 10.4 mph 27.6 mph 0.48 in Rain , Thunderstorm Thunderstorms and Rain
4:44 PM 80.6 °F 82.7 °F 66.2 °F 61% 30.04 in 3.0 mi South 10.4 mph 27.6 mph N/A Rain , Thunderstorm Thunderstorms and Rain
4:56 PM 70.0 °F - 66.0 °F 87% 30.04 in 2.5 mi West 5.8 mph - 0.50 in Rain , Thunderstorm Thunderstorms and Rain
5:03 PM 70.0 °F - 66.9 °F 90% 30.06 in 1.8 mi NNW 10.4 mph - 0.04 in Rain , Thunderstorm Thunderstorms and Rain
5:09 PM 70.0 °F - 66.9 °F 90% 30.06 in 3.0 mi NNW 8.1 mph - 0.06 in Rain , Thunderstorm Thunderstorms and Rain
5:28 PM 70.0 °F - 66.9 °F 90% 30.06 in 1.5 mi WNW 8.1 mph - 0.10 in Rain , Thunderstorm Light Rain
5:32 PM 70.0 °F - 66.9 °F 90% 30.06 in 1.5 mi Variable 3.5 mph - 0.12 in Rain , Thunderstorm Light Rain
5:56 PM 69.8 °F - 66.2 °F 88% 30.04 in 3.0 mi East 5.8 mph - N/A Rain Light Rain
6:56 PM 69.8 °F - 64.4 °F 83% 30.01 in 10.0 mi Variable 4.6 mph - N/A   Mostly Cloudy
7:56 PM 69.8 °F - 66.2 °F 88% 30.00 in 9.0 mi Calm Calm - N/A   Scattered Clouds
8:55 PM 69.8 °F - 66.2 °F 88% 30.01 in 10.0 mi NNW 6.9 mph - N/A   Mostly Cloudy
9:51 PM 69.8 °F - 66.2 °F 88% 30.02 in 10.0 mi SSE 5.8 mph - N/A   Clear
10:54 PM 69.8 °F - 66.2 °F 88% 30.03 in 10.0 mi Calm Calm - N/A   Clear
11:56 PM 68.0 °F - 66.2 °F 94% 30.03 in 10.0 mi Calm Calm - N/A   Clear